Погода в Акбаше

Россия / Республика Татарстан     54°31′26″N   53°13′22″E
темп.,
°C
ветер,
м/с
пор.,
м/с
влажн.,
%
обл.,
%
осадки,
мм/ч
давл.,
гПа
погр.,
м
11 мая, вт
вт1100:00+14всв115748 0.0 102111
03:00+13юв116050 0.0 102311
06:00+17юв115476 0.0 102465
09:00+22ююв114152 0.0 1025757
12:00+25ссв123363 0.0 10252975
15:00+24всв333547 0.0 10251915
18:00+19зсз226080 0.0 102654
21:00+18з1159100 0.0 102711
12 мая, ср
ср1200:00+17вюв115898 0.0 102711
03:00+16вюв116227 0.0 102811
06:00+18в125930 0.0 1028115
09:00+22вюв353855 0.0 10281018
12:00+24в563299 0.0 10282268
15:00+24юв333314 0.0 10272319
18:00+20ю34496 0.0 102777
21:00+16ю125133 0.0 102811
13 мая, чт
чт1300:00+14ююв1153100 0.0 102811
03:00+13в1157100 0.0 102811
06:00+16вюв125449 0.0 102984
09:00+22ююв453992 0.0 10281006
12:00+24ююв453238 0.0 10281660
15:00+25ююв45304 0.0 10271706
18:00+22юв22460 0.0 102619
21:00+17ююв22502 0.0 102611
14 мая, пт
пт1400:00+16ююв225210 0.0 102611
03:00+14ююв225565 0.0 102711
06:00+18ююв235596 0.0 1027122
09:00+23ю46406 0.0 1026642
12:00+26ююз5732100 0.0 10251586
15:00+26ююз4636100 0.0 10251016
18:00+23ююз335063 0.0 102446
21:00+18ююз33543 0.0 102418
15 мая, сб
сб1500:00+17ююз22555 0.0 102412
03:00+15ю22565 0.0 102411
06:00+19ююв23565 0.0 1025111
09:00+25ююз46395 0.0 1024630
12:00+27ююз562981 0.0 10232008
15:00+27юз4529100 0.0 10222032
18:00+24ю22465 0.0 102121
21:00+19ю22470 0.0 102111